TimePDT,TemperatureF,Dew PointF,Humidity,Sea Level PressureIn,VisibilityMPH,Wind Direction,Wind SpeedMPH,Gust SpeedMPH,PrecipitationIn,Events,Conditions,WindDirDegrees,DateUTC
12:53 AM,52.0,51.1,97,29.82,10.0,NNW,5.8,-,N/A,,Clear,330,2012-10-31 07:53:00
1:53 AM,51.1,50.0,96,29.81,10.0,Calm,Calm,-,0.01,,Clear,0,2012-10-31 08:53:00
2:53 AM,51.1,50.0,96,29.81,10.0,Calm,Calm,-,N/A,,Clear,0,2012-10-31 09:53:00
3:53 AM,51.1,50.0,96,29.79,8.0,West,5.8,-,N/A,,Clear,260,2012-10-31 10:53:00
4:53 AM,51.1,51.1,100,29.75,7.0,Calm,Calm,-,N/A,,Clear,0,2012-10-31 11:53:00
6:41 AM,48.2,48.2,100,29.75,1.8,Calm,Calm,-,N/A,,Clear,0,2012-10-31 13:41:00
6:48 AM,48.2,48.2,100,29.75,10.0,Calm,Calm,-,N/A,,Clear,0,2012-10-31 13:48:00
6:53 AM,48.9,48.0,97,29.75,10.0,Calm,Calm,-,N/A,,Clear,0,2012-10-31 13:53:00
7:53 AM,46.9,46.9,100,29.75,10.0,Calm,Calm,-,N/A,,Clear,0,2012-10-31 14:53:00
8:53 AM,48.9,48.0,97,29.76,7.0,NNW,4.6,-,N/A,,Clear,340,2012-10-31 15:53:00
9:53 AM,51.1,50.0,96,29.74,9.0,Calm,Calm,-,N/A,,Clear,0,2012-10-31 16:53:00
10:53 AM,51.1,50.0,96,29.74,9.0,Calm,Calm,-,N/A,,Scattered Clouds,0,2012-10-31 17:53:00
11:30 AM,51.8,51.8,100,29.73,9.0,Calm,Calm,-,N/A,,Overcast,0,2012-10-31 18:30:00
12:20 PM,53.6,51.8,94,29.72,5.0,Calm,Calm,-,N/A,,Scattered Clouds,0,2012-10-31 19:20:00
12:28 PM,53.6,51.8,94,29.72,5.0,Calm,Calm,-,N/A,,Overcast,0,2012-10-31 19:28:00
12:53 PM,54.0,52.0,93,29.70,5.0,NW,3.5,-,N/A,,Overcast,310,2012-10-31 19:53:00
1:03 PM,55.4,51.8,88,29.70,5.0,NNW,3.5,-,N/A,,Overcast,340,2012-10-31 20:03:00
1:53 PM,55.9,53.1,90,29.68,5.0,NW,3.5,-,N/A,,Overcast,310,2012-10-31 20:53:00
2:53 PM,55.9,53.1,90,29.67,10.0,WNW,5.8,-,N/A,,Clear,290,2012-10-31 21:53:00
3:29 PM,55.4,53.6,94,29.68,10.0,West,5.8,-,N/A,,Overcast,270,2012-10-31 22:29:00
3:36 PM,55.4,53.6,94,29.67,10.0,WNW,5.8,-,N/A,,Clear,290,2012-10-31 22:36:00
3:53 PM,55.9,53.1,90,29.68,10.0,West,4.6,-,N/A,,Clear,270,2012-10-31 22:53:00
4:53 PM,55.9,54.0,93,29.71,10.0,WSW,4.6,-,N/A,,Mostly Cloudy,250,2012-10-31 23:53:00
5:53 PM,55.9,53.1,90,29.74,10.0,SW,5.8,-,N/A,,Mostly Cloudy,220,2012-11-01 00:53:00
7:53 PM,57.9,48.9,72,29.76,10.0,SSW,10.4,-,N/A,,Mostly Cloudy,200,2012-11-01 02:53:00
8:53 PM,57.0,51.1,81,29.78,10.0,SSW,3.5,-,0.00,,Overcast,210,2012-11-01 03:53:00
9:53 PM,57.9,50.0,75,29.78,10.0,SSE,8.1,-,0.00,Rain,Light Rain,150,2012-11-01 04:53:00
10:53 PM,54.0,50.0,86,29.79,10.0,ESE,4.6,-,0.00,,Clear,120,2012-11-01 05:53:00
11:53 PM,50.0,48.0,93,29.79,10.0,ESE,4.6,-,N/A,,Clear,120,2012-11-01 06:53:00